Regional Weather Roundup
Issued by NWS

Home | Current Version | Previous Version | Graphics & Text | Print | Product List | Glossary Off
Versions: 1 2 3 4 5 6 7 8 9 10 11 12 13 14 15 16 17 18 19 20 21 22 23 24 25 26 27 28 29 30 31 32 33 34 35 36 37 38 39 40 41 42 43 44 45 46 47 48 49 50

000
ASUS43 KMKX 301321
RWRWI

WISCONSIN REGIONAL WEATHER ROUNDUP
NATIONAL WEATHER SERVICE MILWAUKEE/SULLIVAN WI
800 AM CDT SUN AUG 30 2015

NOTE: "FAIR" INDICATES FEW OR NO CLOUDS BELOW 12,000 FEET WITH NO
SIGNIFICANT WEATHER AND/OR OBSTRUCTIONS TO VISIBILITY.

WIZ001-002-006>008-014>016-023>028-301400-
NORTHWEST WISCONSIN

CITY           SKY/WX    TMP DP  RH WIND       PRES   REMARKS
SUPERIOR ARPT  CLOUDY    65  63  91 SW10      29.95S
ASHLAND        CLOUDY    66  64  93 SW9       29.98S
HAYWARD        CLOUDY    64  61  90 SW10      30.02R
SIREN          CLOUDY    64  62  92 S7        30.00S
CUMBERLAND     FOG       59  59 100 S7        30.02S VSB 1/4
RICE LAKE      CLOUDY    60  59  96 SE5       30.04S FOG
CHETEK         CLOUDY   N/A N/A N/A SE6       30.03S FOG
LADYSMITH      CLOUDY    60  59  96 S6        30.05S
EAU CLAIRE     SUNNY     60  58  92 S5        30.04S
MENOMONIE      FOG       58  58  99 CALM      30.04S VSB<1/4
NEW RICHMOND   CLOUDY    63  63 100 S8        30.02S FOG
OSCEOLA        CLOUDY    64  64 100 S6        30.03S
$$

WIZ003>005-009-010-017-018-301400-
NORTH CENTRAL WISCONSIN

CITY           SKY/WX    TMP DP  RH WIND       PRES   REMARKS
MANITOWISH WTR CLOUDY    61  61 100 SW8       30.03F
ARBOR VITAE    CLOUDY    62  61  96 S5        30.04F
WOODRUFF       CLOUDY    62  61  96 S5        30.04F
RHINELANDER    FOG       59  58  96 S6        30.07S VSB 1
EAGLE RIVER    CLOUDY    60  60 100 SW7       30.05F FOG
LAND O LAKES   CLOUDY    61  60  97 SW5       30.05S
PHILLIPS       CLOUDY    58  58 100 S5        30.04S FOG
TOMAHAWK       FOG       54  53  97 CALM      30.07S VSB 1/2
MEDFORD          N/A     55  55 100 S3        30.06F FOG
MERRILL        FOG       54  54 100 CALM      30.07F VSB<1/4
$$

WIZ029-030-035-036-043>047-301400-
CENTRAL WISCONSIN

CITY           SKY/WX    TMP DP  RH WIND       PRES   REMARKS
WAUSAU         FOG       53  53 100 CALM      30.06S VSB 1/4
MOSINEE        FOG       54  54 100 CALM      30.08R VSB 1/4
MARSHFIELD     SUNNY     59  56  89 SW5       30.07S FOG
STEVENS POINT  FOG       54  54  99 CALM      30.08S VSB 1/4
WAUPACA        FOG       56  55  95 CALM      30.09R VSB 1/4
WAUTOMA        FOG       56  56 100 CALM      30.08S VSB<1/4
WISC RAPIDS    MOSUNNY   59  57  93 CALM      30.09R FOG
CAMP DOUGLAS   CLOUDY    55  55 100 CALM      30.07R
$$

WIZ011>013-019>022-031-037>040-048>050-301400-
NORTHEAST WISCONSIN

CITY           SKY/WX    TMP DP  RH WIND       PRES   REMARKS
ANTIGO         FOG       55  55 100 CALM      30.07F VSB 1/4
SHAWANO        PTSUNNY   56  55  95 CALM      30.07S FOG
OCONTO         SUNNY     56  56 100 CALM      30.06S
STURGEON BAY   CLOUDY    61  57  88 CALM      30.09S VSB 1
GREEN BAY      FOG       58  58 100 CALM      30.08R VSB 1/4
MANITOWOC      FOG       58  58 100 MISG      30.08S VSB 1/4
APPLETON       PTSUNNY   61  61 100 CALM      30.07S FOG
CLINTONVILLE   FOG       54  52  94 CALM      30.07S VSB 1/2
OSHKOSH        FOG       59  58  96 S3        30.08R VSB 1/4
$$

WIZ032>034-041-042-053>061-301400-
SOUTHWEST WISCONSIN

CITY           SKY/WX    TMP DP  RH WIND       PRES   REMARKS
LA CROSSE      FOG       60  59  96 SE6       30.06R VSB<1/4
SPARTA         SUNNY     55  53  96 CALM      30.07F
VIROQUA        SUNNY     61  61 100 S3        30.08S
BOSCOBEL       FOG       61  60  97 CALM      30.08R VSB<1/4
PRAIRIE DU CHI FOG       59  57  95 CALM      30.07S VSB 1/4
PLATTEVILLE    SUNNY     63  61  94 CALM      30.08S
$$

WIZ056-057-062-063-064-067-068-301400-
SOUTH CENTRAL WISCONSIN

CITY           SKY/WX    TMP DP  RH WIND       PRES   REMARKS
REEDSBURG      SUNNY     58  58 100 CALM      30.07S FOG
BARABOO/DELLS  MOSUNNY   60  59  96 CALM      30.08R
LONE ROCK      FOG       62  61  96 CALM      30.08R VSB<1/4
MINERAL POINT  SUNNY     63  61  94 CALM      30.08S
MADISON        MOSUNNY   64  61  90 CALM      30.07S
MIDDLETON      CLOUDY    65  65 100 CALM      30.08S VSB 1
WATERTOWN      CLOUDY    63  63 100 CALM      30.08R FOG
MONROE         CLOUDY    64  59  82 CALM      30.08S
JANESVILLE     CLOUDY    66  64  94 NE6       30.08R FOG
$$

WIZ051-052-058>065-066-070>072-301400-
SOUTHEAST WISCONSIN

CITY           SKY/WX    TMP DP  RH WIND       PRES   REMARKS
MILWAUKEE      FOG       64  62  93 N3        30.08R VSB 1
WAUKESHA       MOSUNNY   61  61 100 CALM      30.09R FOG
MILWAUKEE/TIMM FOG       63  61  94 CALM      30.09R VSB 1
RACINE         FOG       64  62  93 N5        30.09R VSB<1/4
BURLINGTON     CLOUDY    61  61  99 N5        30.08S
KENOSHA        CLOUDY    64  63  96 N3        30.08R FOG
FOND DU LAC    FOG       63  60  90 CALM      30.08S VSB 1/4
SHEBOYGAN      FOG       58  58 100 CALM      30.08S VSB 1/4
WEST BEND      CLOUDY    59  59 100 CALM      30.08S
JUNEAU         FOG       58  58 100 CALM      30.09S VSB<1/4
$$

LSZ147-162-301400-
LAKE SUPERIOR

STATION/POSITION TIME  TEMP    WIND        PRES    WAVE
                       AIR SEA DIR/SP/G            HT/PER
                 (UTC) (F)     (DEG/KT/KT) (MB)    (FT/S)
W MID LAKE BUOY  1250   58 54  220/ 12/ 14 1014.2R   1/ 3
DEVILS ISLAND    1300   64     210/  6/  7 1014.1F
PORT WING        1200   65     200/  8/ 11 1014.6
SAXON HARBOR     1240   66     200/  6/ 11 1014.2F
$$

LMZ867-665-643>646-301400-
LAKE MICHIGAN

STATION/POSITION TIME  TEMP    WIND        PRES    WAVE
                       AIR SEA DIR/SP/G            HT/PER
                 (UTC) (F)     (DEG/KT/KT) (MB)    (FT/S)
CHAMBERS ISLAND  1200   59      CALM  /  4 1017.9R
S GREEN BAY BUOY 1300   60 62  180/  6/  6 1019.5F
N MID LAKE BUOY  1250   63 64  200/  8/ 10 1017.4F   0
NORTHPORT PIER   1204   63      CALM  /  5 1017.6R
SISTER BAY       1219   65        CALM       N/A
ALGOMA LAKESHORE 1244             CALM       N/A
SHEBOYGAN LAKESH 1300   54      10/  2/  3 1019.0R
PORT WASHINGTON  1240   57      CALM  /  2 1019.3R
ATWATER BUOY     1300   56 49  350/  6/  6 1019.8R
MILWAUKEE LAKESH 1200   61      30/  1/  2   N/A
S MID LAKE BUOY  1250   67 68  350/  8/ 10 1017.4R   1
KENOSHA   LAKESH 1300   61     360/  4/  5 1018.3R
$$

TC  - TEMPERATURE IN CELSIUS
VSB - VISIBILITY IN STATUTE MILES
WCI - WIND CHILL INDEX
HX  - HEAT INDEX




USA.gov is the U.S. government's official web portal to all federal, state and local government web resources and services.